Regional Weather Roundup
Issued by NWS

Home | Current Version | Previous Version | Text Only | Print | Product List | Glossary Off
Versions: 1 2 3 4 5 6 7 8 9 10 11 12 13 14 15 16 17 18 19 20 21 22 23 24 25 26 27 28 29 30 31 32 33 34 35 36 37 38 39 40 41 42 43 44 45 46 47 48 49 50

000
ASUS43 KDTX 012301
RWRMI
MICHIGAN HOURLY REGIONAL WEATHER ROUNDUP
NATIONAL WEATHER SERVICE DETROIT/PONTIAC MI
700 PM EDT MON SEP 01 2014

NOTE: "FAIR" INDICATES FEW OR NO CLOUDS BELOW 12,000 FEET WITH NO
SIGNIFICANT WEATHER AND/OR OBSTRUCTION TO VISIBILITY.

MIZ047>049-052>055-059>063-066>070-074>076-081>083-020000-
SOUTHEAST LOWER MICHIGAN

CITY           SKY/WX    TMP DP  RH WIND       PRES   REMARKS
ADRIAN         PTSUNNY   81  70  69 SW15G24   29.79S
ALMA           MOSUNNY   77  67  70 W9        29.74R
BAD AXE        CLOUDY    70  70 100 S9        29.75S
CARO           CLOUDY    72  70  95 S5        29.74R
DETROIT CITY   TSTM      76  70  82 W21G33    29.77R VSB 3/4
DETROIT        PTSUNNY   79  70  74 W12G23    29.77R
FLINT          CLOUDY    77  70  79 SW7       29.76R
GROSSE ILE     PTSUNNY   82  70  65 SW20G26   29.75R
HILLSDALE      PTSUNNY   76  74  93 W6        29.81S
HOWELL         CLOUDY    72  71  96 SW5       29.78S

CITY           SKY/WX    TMP DP  RH WIND       PRES   REMARKS
JACKSON        PTSUNNY   79  68  69 SW13G20   29.78S
LAMBERTVILLE   PTSUNNY   81  68  65 SW14G22   29.80R
LANSING        PTSUNNY   76  71  85 SW10      29.76R
LAPEER         FAIR      73  69  90 SW9       29.77R
MASON          PTSUNNY   75  71  86 SW5       29.77S
MONROE         LGT RAIN  81  70  69 SW15G23   29.77R
MT. CLEMENS    TSTM      73  68  85 NW8G21    29.77R
PONTIAC        CLOUDY    73  69  87 SW6       29.77F
PORT HOPE        N/A     71  67  87 VRB6      29.72R
PORT HURON     HVY RAIN  72  70  94 W9G20     29.79R
TRI CITIES     PTSUNNY   78  72  81 SW8       29.73R
TROY           LGT RAIN  75  70  85 SW6         N/A
SAGINAW HB     CLOUDY    75  73  94 SW9       29.73R
$$
MIZ043>046-050>051-056>058-064>065-071>073-077>080-020000-
SOUTHWEST LOWER MICHIGAN

CITY           SKY/WX    TMP DP  RH WIND       PRES   REMARKS
BATTLE CREEK   MOSUNNY   79  70  74 SW12      29.78R
BENTON HARBOR  SUNNY     79  65  62 W13       29.77R
BIG RAPIDS     PTSUNNY   76  68  78 SW9G17    29.72S
COLDWATER      MOSUNNY   80  71  74 SW12G20   29.79F
FREMONT        MOCLDY    76  66  71 SW13      29.73R
HOLLAND        SUNNY     78  68  71 SW17G24   29.76R
GRAND RAPIDS   PTSUNNY   80  70  71 W18G28    29.76R
IONIA          MOCLDY    79  67  67 W15       29.75R
KALAMAZOO      MOSUNNY   81  70  69 SW7       29.77S
LUDINGTON      PTSUNNY   74  69  84 SW12      29.72R
MARSHALL       MOSUNNY   78  69  74 MISG      29.77S
MOUNT PLEASANT MOSUNNY   78  66  66 SW10G16   29.72R
MUSKEGON       PTSUNNY   75  67  76 SW14      29.74R
SOUTH HAVEN    SUNNY     79  67  67 W9G17     29.77R
$$
MIZ016>042-020000-
NORTHERN LOWER MICHIGAN

CITY           SKY/WX    TMP DP  RH WIND       PRES   REMARKS
ALPENA         MOSUNNY   74  66  76 SW6       29.68R
BEAVER ISLAND  SUNNY     70  65  84 SW12      29.66R
BELLAIRE       CLOUDY    72  64  74 CALM      29.68R
CADILLAC       PTSUNNY   72  67  84 SW10G20   29.72R
CHARLEVOIX     CLOUDY    70  65  83 SW9       29.70R
FRANKFORT      CLOUDY    72  66  81 SW9       29.69R
GAYLORD        CLOUDY    69  63  81 W5        29.70R
GRAYLING       CLOUDY    74  67  77 W3        29.71S
HARBOR SPRINGS CLOUDY    70  64  82 SW7       29.67R
HOUGHTON LAKE  MOSUNNY   74  65  73 SW9       29.71R
MANISTEE       CLOUDY    73  64  73 W9        29.71R
OSCODA         PTSUNNY   74  71  88 SW8       29.69R
PELLSTON       CLOUDY    70  63  78 SW10      29.67R
ROGERS CITY    LGT RAIN  73  68  83 SW7       29.68R
TRAVERSE CITY  CLOUDY    74  63  68 SW7       29.67R
$$
MIZ007>008-015-020000-
EASTERN UPPER MICHIGAN

CITY           SKY/WX    TMP DP  RH WIND       PRES   REMARKS
KINROSS        PTSUNNY   70  64  83 SW10G17   29.63S
MACKINAC ISLAN CLOUDY    68  65  89 SW13G20   29.65R
NEWBERRY       MOSUNNY   69  64  84 SW9       29.61S
S. S. MARIE    MOSUNNY   70  63  78 SW12      29.61R
$$
MIZ004>006-011>014-085-020000-
CENTRAL UPPER MICHIGAN

CITY           SKY/WX    TMP DP  RH WIND       PRES   REMARKS
MANISTIQUE     SUNNY     72  64  76 S8        29.62R
ESCANABA       PTSUNNY   72  61  68 W17G24    29.64R
MENOMINEE      SUNNY     73  63  68 W7        29.65S
SAWYER-GWINN   SUNNY     68  59  73 NW10      29.65R
$$
MIZ001>003-009>011-084-020000-
WESTERN UPPER MICHIGAN

CITY           SKY/WX    TMP DP  RH WIND       PRES   REMARKS
IRON MOUNTAIN  SUNNY     71  62  73 NW7       29.65R
HOUGHTON       MOSUNNY   66  57  72 W20G29    29.62R
COPPER HARBOR    N/A     67  57  70 NW9       29.58R
$$

ABBREVIATIONS USED IN REMARKS
   TC - TEMPERATURE IN CELSIUS
  WCI - WIND CHILL INDEX
   HX - HEAT INDEX
  VSB - VISIBILITY




USA.gov is the U.S. government's official web portal to all federal, state and local government web resources and services.